User: anonymous   Login
Location: Unspecified
(43.4680°N, 87.1740°E)
Time: 13:00:13
(UTC+00:00)
Language:

FENGYUN 3A - Orbit

View from above orbital plane
View from above orbital plane
View from above satellite
View from above satellite

Ground track
Ground track

The orbit data is extracted from the following two-line orbital elements,

1 32958U 08026A   21173.91679257 -.00000021  00000-0  99955-5 0  9999
2 32958  98.4504 147.3430 0008536 352.0240   8.0799 14.18659529677248
Epoch (UTC): 22 June 2021 22:00:10
Eccentricity: 0.0008536
inclination: 98.4504°
perigee height: 824 km
apogee height: 836 km
right ascension of ascending node: 147.3430°
argument of perigee: 352.0240°
revolutions per day: 14.18659529
mean anomaly at epoch: 8.0799°
orbit number at epoch: 67724

The dashed part of the orbit path shows where the satellite is in the earth's shadow,  

DLR